Regional Weather Roundup
Issued by NWS

Home | Current Version | Previous Version | Graphics & Text | Print | Product List | Glossary On
Versions: 1 2 3 4 5 6 7 8 9 10 11 12 13 14 15 16 17 18 19 20 21 22 23 24 25 26 27 28 29 30 31 32 33 34 35 36 37 38 39 40 41 42 43 44 45 46 47 48 49 50
000
ASUS43 KLSX 271759
RWRMO

WEATHER SUMMARY FOR MISSOURI
NATIONAL WEATHER SERVICE SPRINGFIELD MO
100 PM CDT WED AUG 27 2014

NOTE: "FAIR" INDICATES FEW OR NO CLOUDS BELOW 12,000 FEET WITH NO
       SIGNIFICANT WEATHER AND/OR OBSTRUCTIONS TO VISIBILITY.
       CURRENT SKY AND/OR WEATHER CONDITIONS ARE NOT AVAILABLE FOR
       CHILLICOTHE AND FARMINGTON.

MOZ001>031-035>038-043-044-053-054-271900-
...NORTHERN AND WESTERN MISSOURI...

CITY           SKY/WX    TMP DP  RH WIND       PRES   REMARKS
KANSAS CTY INT CLOUDY    77  67  71 NE10      30.14F
6HR MIN TEMP:  70; 6HR MAX TEMP:  77; 6HR PCP:  0.02;

KANSAS C DTWN  FAIR      84  70  62 NE8G17    30.12F
6HR MIN TEMP:  75; 6HR MAX TEMP:  85;

LEE`S SUMMIT   FAIR      83  71  67 NE12      30.14F
6HR MIN TEMP:  73; 6HR MAX TEMP:  83;

ST JOSEPH      FAIR      72  70  93 E3        30.13F
6HR MIN TEMP:  69; 6HR MAX TEMP:  72; 6HR PCP:  0.26;

KIRKSVILLE     LGT RAIN  74  70  87 NE6       30.17S FOG
6HR MIN TEMP:  69; 6HR MAX TEMP:  76; 6HR PCP:  0.02;


$$
MOZ066>068-077>081-088>096-101>105-271900-
...SOUTHWEST MISSOURI...

CITY           SKY/WX    TMP DP  RH WIND       PRES   REMARKS
SPRINGFIELD    FAIR      94  65  38 NW5       30.11F HX  96
6HR MIN TEMP:  72; 6HR MAX TEMP:  94;

JOPLIN         PTSUNNY   91  68  46 VRB6      30.10F HX  95
6HR MIN TEMP:  73; 6HR MAX TEMP:  93;


$$
MOZ032>034-039>042-045>050-055>058-069>072-271900-
...CENTRAL MISSOURI...

CITY           SKY/WX    TMP DP  RH WIND       PRES   REMARKS
COLUMBIA       FAIR      87  75  67 N13       30.12F HX  96
6HR MIN TEMP:  71; 6HR MAX TEMP:  88;

JEFFERSON CITY FAIR      89  72  56 N7        30.09F HX  96
6HR MIN TEMP:  70; 6HR MAX TEMP:  90;

ROLLA          PTSUNNY   91  69  48 NW9       30.10F THUNDER HX  96
6HR MIN TEMP:  70; 6HR MAX TEMP:  94;

SEDALIA        FAIR      83  73  72 N8        30.14F
6HR MIN TEMP:  74; 6HR MAX TEMP:  84;

OSAGE BEACH    FAIR      90  72  55 NW7       30.11S HX  96

$$
MOZ051-052-059>065-271900-
...EAST CENTRAL MISSOURI...

CITY           SKY/WX    TMP DP  RH WIND       PRES   REMARKS
ST LOUIS INTL  PTSUNNY   94  72  48 W8        30.10S HX 102
SPIRIT OF STL  PTSUNNY   91  73  55 CALM      30.08S HX  99
6HR MIN TEMP:  72; 6HR MAX TEMP:  91;

ST CHARLES     FAIR      89  73  59 CALM      30.09S HX  97
6HR MIN TEMP:  71; 6HR MAX TEMP:  90;


$$
MOZ072>076-082>087-097>100-106>115-271900-
...SOUTH CENTRAL AND SOUTHEAST MISSOURI...

CITY           SKY/WX    TMP DP  RH WIND       PRES   REMARKS
CAPE GIRARDEAU FAIR      91  73  55 CALM      30.07F HX  99
6HR MIN TEMP:  70; 6HR MAX TEMP:  92;

FARMINGTON     FAIR      93  66  40 SE3       30.12F HX  96
6HR MIN TEMP:  70; 6HR MAX TEMP:  93;

POPLAR BLUFF   FAIR      92  70  48 VRB3      30.07F HX  97
6HR MIN TEMP:  71; 6HR MAX TEMP:  92;

WEST PLAINS    FAIR      90  67  46 CALM      30.13F HX  93
6HR MIN TEMP:  70; 6HR MAX TEMP:  93;


$$


USA.gov is the U.S. government's official web portal to all federal, state and local government web resources and services.